{"data":{"norad_id":63568,"epoch":"2026-05-25T03:54:05.313600Z","epoch_age_seconds":54305,"freshness":"FRESH","line1":"1 63568U 25075W   26145.16256150  .00020006  00000+0  73396-3 0  9999","line2":"2 63568  42.9987 198.6633 0003389 290.2514  69.7973 15.27602908 63629","mean_motion":15.27602908,"eccentricity":0.0003389,"inclination_deg":42.9987,"raan_deg":198.6633,"arg_perigee_deg":290.2514,"mean_anomaly_deg":69.7973,"bstar":0.00073396,"rev_number":6362,"period_min":94.265335085366,"perigee_km":480.65526938229,"apogee_km":485.30573482522,"semimajor_km":6861.1175021038,"source":"CELESTRAK","updated_at":"2026-05-25T13:38:20.044882Z"}}